Home   Weather   23°07'N, 113°16'E   Past weeks
Flag for China

Past Weather in 23°07'N, 113°16'E, China — Yesterday and Last 2 Weeks

Now
88 °F

Partly sunny.


Feels Like: 93 °F
Forecast: 92 / 81 °F
Wind: 6 mph from Southeast

Location: Canton Airport

Current Time: Jun 16, 2019 at 1:17:00 pm

Latest Report: Jun 16, 2019 at 12:30 pm


Visibility: N/A

Pressure: 29.71 "Hg

Humidity: 55%

Dew Point: 70 °F

Location of 23°07'N, 113°16'ELocation

Past Weather in 23°07'N, 113°16'E — Graph

°F

23°07'N, 113°16'E Temperature Yesterday

Maximum temperature yesterday: 91 °F (at 2:30 pm)
Minimum temperature yesterday: 75 °F (at 4:00 am)
Average temperature yesterday: 84 °F

High & Low Weather Summary for the Past Weeks

 TemperatureHumidityPressure
High95 °F (Jun 8, 2:00 pm)94% (Jun 1, 6:00 pm)29.86 "Hg (Jun 1, 6:00 pm)
Low73 °F (Jun 4, 4:30 pm)38% (Jun 15, 4:00 pm)29.50 "Hg (Jun 13, 3:00 pm)
Average83 °F78%29.69 "Hg
* Reported Jun 1 12:00 pm — Jun 16 12:00 pm, 23°07'N, 113°16'E. Weather by CustomWeather, © 2019

Note: Actual official high and low records may vary slightly from our data, if they occured in-between our weather recording intervals... More about our weather records

Advertising

23°07'N, 113°16'E Weather History for the Previous 24 Hours

Scroll right to see more
 ConditionsComfort  
Time TempWeatherWind HumidityBarometerVisibility
12:00 pm
Sun, Jun 16
88 °FPartly sunny.6 mph55%29.71 "HgN/A
11:30 am88 °FPartly sunny.6 mph59%29.71 "HgN/A
11:00 am88 °FPartly sunny.6 mph59%29.74 "HgN/A
10:30 am86 °FPartly sunny.3 mph66%29.74 "HgN/A
10:00 am86 °FScattered clouds.3 mph62%29.74 "HgN/A
9:30 am84 °FPassing clouds.6 mph66%29.71 "HgN/A
9:00 am84 °FPassing clouds.8 mph66%29.71 "HgN/A
8:30 am82 °FPassing clouds.8 mph70%29.71 "HgN/A
8:00 am81 °FSunny.8 mph74%29.71 "Hg10 mi
7:30 am79 °FSunny.8 mph79%29.71 "Hg10 mi
7:00 am79 °FSunny.6 mph79%29.71 "Hg10 mi
6:30 am79 °FSunny.6 mph79%29.71 "Hg10 mi
6:00 am79 °FPartly sunny.3 mph79%29.71 "HgN/A
5:30 am79 °FPassing clouds.3 mph79%29.68 "HgN/A
5:00 am79 °FPassing clouds.3 mph79%29.68 "HgN/A
4:30 am79 °FPassing clouds.6 mph79%29.68 "HgN/A
4:00 am79 °FClear.3 mph79%29.68 "Hg10 mi
3:30 am79 °FPassing clouds.6 mph79%29.68 "HgN/A
3:00 am79 °FClear.6 mph79%29.68 "Hg10 mi
2:30 am79 °FPassing clouds.6 mph79%29.68 "HgN/A
2:00 am79 °FPassing clouds.6 mph79%29.68 "HgN/A
1:30 am81 °FPassing clouds.6 mph74%29.68 "HgN/A
1:00 am81 °FPassing clouds.6 mph79%29.68 "HgN/A
12:30 am81 °FPassing clouds.1 mph79%29.71 "HgN/A
12:00 am82 °FPassing clouds.3 mph74%29.71 "HgN/A
11:30 pm
Sat, Jun 15
82 °FPassing clouds.3 mph74%29.71 "HgN/A
11:00 pm84 °FClear.3 mph70%29.71 "Hg10 mi
10:30 pm84 °FClear.8 mph66%29.71 "Hg10 mi
10:00 pm84 °FPassing clouds.8 mph66%29.68 "HgN/A
9:30 pm84 °FClear.10 mph66%29.68 "Hg10 mi
9:00 pm84 °FClear.6 mph62%29.68 "Hg10 mi
8:30 pm86 °FPassing clouds.3 mph59%29.65 "HgN/A
8:00 pm88 °FClear.3 mph52%29.65 "Hg10 mi
7:30 pm88 °FPassing clouds.3 mph52%29.65 "HgN/A
7:00 pm88 °FScattered clouds.3 mph49%29.62 "HgN/A
6:30 pm90 °FScattered clouds.3 mph49%29.62 "HgN/A
6:00 pm90 °FScattered clouds.3 mph46%29.62 "HgN/A
5:30 pm91 °FScattered clouds.3 mph44%29.62 "HgN/A
5:00 pm91 °FScattered clouds.3 mph41%29.62 "HgN/A
4:30 pm91 °FScattered clouds.1 mph44%29.62 "HgN/A
4:00 pm91 °FScattered clouds.1 mph38%29.62 "HgN/A
3:30 pm91 °FScattered clouds.1 mph41%29.65 "HgN/A
3:00 pm91 °FScattered clouds.3 mph41%29.65 "HgN/A
2:30 pm91 °FScattered clouds.3 mph41%29.65 "HgN/A
2:00 pm90 °FScattered clouds.3 mph43%29.65 "HgN/A
1:30 pm90 °FScattered clouds.3 mph46%29.65 "HgN/A
1:00 pm90 °FScattered clouds.1 mph46%29.68 "HgN/A
Weather by CustomWeather, © 2019

See weather overview